Voltar ao catálogo

BREEZE-M DEB

TANK

AtivoHEO
NORAD 37808·DEBRIS·🇷🇺 Russia

Lançado Sep 20, 2011 de Baikonur Cosmodrome

Loading…

Próximas Passagens (próximas 24 horas)

TLE

AtualizadoSource: Space-Track

Época: Sep 14, 2026, 12:50 UTC

1 37808U 11048C   26257.53512418 -.00000065  00000-0  36893-2 0  9994
2 37808  48.1078  36.7028 7011892 221.6152  55.7947  2.28729627124053

Acompanhe BREEZE-M DEB em tempo real com AllMySat

Download on the App Store